User: anonymous   Login
Location: Famechon
(49.7599°N, 2.0615°E)
Time: 15:32:40
(UTC+00:00)
Language:

Cosmos 2219 Rocket - Orbit

View from above orbital plane
View from above orbital plane
View from above satellite
View from above satellite

Ground track
Ground track

The orbit data is extracted from the following two-line orbital elements,

1 22220U 92076B   24106.50697793 -.00000128  00000-0 -40185-4 0  9996
2 22220  71.0008 208.3326 0010604  67.9805   8.7109 14.16642147623985
Epoch (UTC): 15 April 2024 12:10:02
Eccentricity: 0.0010604
inclination: 71.0008°
perigee height: 829 km
apogee height: 844 km
right ascension of ascending node: 208.3326°
argument of perigee: 67.9805°
revolutions per day: 14.16642147
mean anomaly at epoch: 8.7109°
orbit number at epoch: 62398

The dashed part of the orbit path shows where the satellite is in the earth's shadow,  

DLR